| time (UTC) | temp F | wind direction | speed MPH | gust MPH | rain 1hr in | rain 24hr in | rain mn in | humidity % | barometer mb |
| 20260902165516 | 88 | 8 | 1.0 | 6.0 | 0.00 | 0.00 | 0.00 | 70 | 984.9 |
| 20260902165015 | 89 | 209 | 2.0 | 4.0 | 0.00 | 0.00 | 0.00 | 69 | 985.1 |
| 20260902164511 | 89 | 68 | 2.0 | 3.0 | 0.00 | 0.00 | 0.00 | 71 | 985.0 |
| 20260902164009 | 88 | 244 | 2.0 | 3.0 | 0.00 | 0.00 | 0.00 | 70 | 985.2 |
| 20260902163506 | 89 | 174 | 3.0 | 3.0 | 0.00 | 0.00 | 0.00 | 68 | 985.3 |
| 20260902163003 | 88 | 115 | 1.0 | 6.0 | 0.00 | 0.00 | 0.00 | 71 | 985.3 |
| 20260902162458 | 88 | 115 | 3.0 | 6.0 | 0.00 | 0.00 | 0.00 | 70 | 985.2 |
| 20260902161958 | 89 | 2 | 1.0 | 6.0 | 0.00 | 0.00 | 0.00 | 71 | 985.4 |
| 20260902161454 | 88 | 244 | 0.0 | 2.0 | 0.00 | 0.00 | 0.00 | 71 | 985.5 |
| 20260902160949 | 88 | 183 | 3.0 | 4.0 | 0.00 | 0.00 | 0.00 | 71 | 985.3 |
| 20260902160445 | 87 | 115 | 2.0 | 6.0 | 0.00 | 0.00 | 0.00 | 71 | 985.4 |
| 20260902155942 | 87 | 101 | 3.0 | 4.0 | 0.00 | 0.00 | 0.00 | 72 | 985.6 |
| 20260902155438 | 87 | 114 | 2.0 | 4.0 | 0.00 | 0.00 | 0.00 | 72 | 985.5 |
| 20260902154932 | 88 | 115 | 3.0 | 6.0 | 0.00 | 0.00 | 0.00 | 73 | 985.6 |
| 20260902154428 | 88 | 122 | 4.0 | 4.0 | 0.00 | 0.00 | 0.00 | 77 | 985.6 |
| 20260902153927 | 89 | 118 | 2.0 | 3.0 | 0.00 | 0.00 | 0.00 | 73 | 985.7 |
| 20260902153426 | 87 | 302 | 2.0 | 2.0 | 0.00 | 0.00 | 0.00 | 75 | 985.7 |
| 20260902152921 | 86 | 129 | 1.0 | 4.0 | 0.00 | 0.00 | 0.00 | 73 | 985.5 |
| 20260902152418 | 87 | 305 | 1.0 | 2.0 | 0.00 | 0.00 | 0.00 | 74 | 985.6 |
| 20260902151913 | 86 | 142 | 0.0 | 3.0 | 0.00 | 0.00 | 0.00 | 79 | 985.7 |
| 20260902151409 | 86 | 120 | 1.0 | 4.0 | 0.00 | 0.00 | 0.00 | 75 | 985.7 |
| 20260902150909 | 86 | 109 | 3.0 | 3.0 | 0.00 | 0.00 | 0.00 | 76 | 985.6 |
| 20260902150405 | 86 | 200 | 4.0 | 4.0 | 0.00 | 0.00 | 0.00 | 73 | 985.6 |
| 20260902145904 | 86 | 104 | 2.0 | 3.0 | 0.00 | 0.00 | 0.00 | 77 | 985.7 |
| 20260902145359 | 87 | 102 | 2.0 | 2.0 | 0.00 | 0.00 | 0.00 | 74 | 985.5 |
| 20260902144854 | 86 | 256 | 0.0 | 1.0 | 0.00 | 0.00 | 0.00 | 77 | 985.6 |
| 20260902144351 | 84 | 110 | 2.0 | 3.0 | 0.00 | 0.00 | 0.00 | 79 | 985.6 |
| 20260902143850 | 84 | 123 | 1.0 | 4.0 | 0.00 | 0.00 | 0.00 | 79 | 985.4 |
| 20260902143345 | 83 | 171 | 1.0 | 3.0 | 0.00 | 0.00 | 0.00 | 82 | 985.7 |
| 20260902142841 | 83 | 80 | 1.0 | 3.0 | 0.00 | 0.00 | 0.00 | 84 | 985.6 |
| 20260902142337 | 83 | 61 | 2.0 | 3.0 | 0.00 | 0.00 | 0.00 | 82 | 985.6 |
| 20260902141832 | 81 | 114 | 1.0 | 3.0 | 0.00 | 0.00 | 0.00 | 84 | 985.2 |
| 20260902141328 | 81 | 100 | 1.0 | 2.0 | 0.00 | 0.00 | 0.00 | 85 | 985.4 |
| 20260902140827 | 81 | 110 | 0.0 | 2.0 | 0.00 | 0.00 | 0.00 | 84 | 985.3 |
| 20260902140322 | 81 | 103 | 1.0 | 3.0 | 0.00 | 0.00 | 0.00 | 84 | 985.3 |
| 20260902135821 | 81 | 90 | 1.0 | 3.0 | 0.00 | 0.00 | 0.00 | 84 | 985.4 |
| 20260902135318 | 81 | 82 | 2.0 | 3.0 | 0.00 | 0.00 | 0.00 | 86 | 985.1 |
| 20260902134816 | 80 | 87 | 1.0 | 2.0 | 0.00 | 0.00 | 0.00 | 87 | 985.2 |
| 20260902134312 | 79 | 67 | 0.0 | 2.0 | 0.00 | 0.00 | 0.00 | 90 | 985.3 |
| 20260902133808 | 78 | 66 | 1.0 | 2.0 | 0.00 | 0.00 | 0.00 | 94 | 985.3 |
| 20260902133307 | 78 | 82 | 2.0 | 2.0 | 0.00 | 0.00 | 0.00 | 91 | 985.3 |
| 20260902132802 | 79 | 88 | 0.0 | 0.0 | 0.00 | 0.00 | 0.00 | 91 | 985.2 |
| 20260902132258 | 78 | 53 | 0.0 | 0.0 | 0.00 | 0.00 | 0.00 | 91 | 985.2 |
| 20260902131753 | 79 | 49 | 0.0 | 0.0 | 0.00 | 0.00 | 0.00 | 90 | 985.3 |
| 20260902131249 | 77 | 43 | 0.0 | 0.0 | 0.00 | 0.00 | 0.00 | 92 | 985.3 |
| 20260902130749 | 77 | 42 | 0.0 | 0.0 | 0.00 | 0.00 | 0.00 | 92 | 985.1 |
| 20260902130245 | 76 | 42 | 0.0 | 0.0 | 0.00 | 0.00 | 0.00 | 92 | 985.2 |
| 20260902125740 | 75 | 42 | 0.0 | 0.0 | 0.00 | 0.00 | 0.00 | 95 | 985.1 |
| 20260902125236 | 75 | 315 | 0.0 | 0.0 | 0.00 | 0.00 | 0.00 | 95 | 985.0 |
| 20260902124732 | 73 | 313 | 0.0 | 0.0 | 0.00 | 0.00 | 0.00 | 97 | 985.0 |
| 20260902124227 | 72 | 309 | 0.0 | 0.0 | 0.00 | 0.00 | 0.00 | 99 | 985.0 |
| 20260902123723 | 71 | 309 | 0.0 | 0.0 | 0.00 | 0.00 | 0.00 | 99 | 985.0 |
| 20260902123219 | 70 | 296 | 0.0 | 0.0 | 0.00 | 0.00 | 0.00 | 99 | 985.1 |
| 20260902122717 | 69 | 250 | 0.0 | 0.0 | 0.00 | 0.00 | 0.00 | 99 | 985.1 |
| 20260902122214 | 69 | 244 | 0.0 | 0.0 | 0.00 | 0.00 | 0.00 | 99 | 985.0 |
| 20260902121713 | 69 | 244 | 0.0 | 0.0 | 0.00 | 0.00 | 0.00 | 99 | 985.1 |
| 20260902121208 | 70 | 245 | 0.0 | 0.0 | 0.00 | 0.00 | 0.00 | 99 | 985.1 |
| 20260902120704 | 69 | 245 | 0.0 | 0.0 | 0.00 | 0.00 | 0.00 | 99 | 985.1 |
| 20260902120201 | 67 | 245 | 0.0 | 0.0 | 0.00 | 0.00 | 0.00 | 99 | 985.2 |
| 20260902115700 | 67 | 245 | 0.0 | 0.0 | 0.00 | 0.00 | 0.00 | 99 | 985.0 |
| 20260902115156 | 67 | 245 | 0.0 | 0.0 | 0.00 | 0.00 | 0.00 | 99 | 985.0 |
| 20260902114652 | 66 | 245 | 0.0 | 0.0 | 0.00 | 0.00 | 0.00 | 99 | 985.0 |
| 20260902114147 | 66 | 245 | 0.0 | 0.0 | 0.00 | 0.00 | 0.00 | 99 | 984.7 |
| 20260902113643 | 66 | 245 | 0.0 | 0.0 | 0.00 | 0.00 | 0.00 | 99 | 984.8 |
| 20260902113138 | 66 | 245 | 0.0 | 0.0 | 0.00 | 0.00 | 0.00 | 99 | 984.9 |
| 20260902112632 | 66 | 245 | 0.0 | 0.0 | 0.00 | 0.00 | 0.00 | 99 | 985.0 |
| 20260902112130 | 66 | 245 | 0.0 | 0.0 | 0.00 | 0.00 | 0.00 | 99 | 984.8 |
| 20260902111625 | 66 | 245 | 0.0 | 0.0 | 0.00 | 0.00 | 0.00 | 99 | 984.9 |
| 20260902111121 | 66 | 245 | 0.0 | 0.0 | 0.00 | 0.00 | 0.00 | 99 | 985.1 |
| 20260902110616 | 66 | 245 | 0.0 | 0.0 | 0.00 | 0.00 | 0.00 | 99 | 984.9 |
| 20260902110113 | 66 | 245 | 0.0 | 0.0 | 0.00 | 0.00 | 0.00 | 99 | 984.9 |
| 20260902105612 | 66 | 245 | 0.0 | 0.0 | 0.00 | 0.00 | 0.00 | 99 | 984.8 |
| 20260902105107 | 66 | 245 | 0.0 | 0.0 | 0.00 | 0.00 | 0.00 | 99 | 984.8 |
| 20260902104602 | 66 | 245 | 0.0 | 0.0 | 0.00 | 0.00 | 0.00 | 99 | 985.0 |
| 20260902104056 | 66 | 245 | 0.0 | 0.0 | 0.00 | 0.00 | 0.00 | 99 | 984.9 |
| 20260902103552 | 66 | 245 | 0.0 | 0.0 | 0.00 | 0.00 | 0.00 | 99 | 985.1 |
| 20260902103047 | 66 | 245 | 0.0 | 0.0 | 0.00 | 0.00 | 0.00 | 99 | 984.9 |
| 20260902102543 | 66 | 245 | 0.0 | 0.0 | 0.00 | 0.00 | 0.00 | 99 | 985.0 |
| 20260902102040 | 66 | 245 | 0.0 | 0.0 | 0.00 | 0.00 | 0.00 | 99 | 984.9 |
| 20260902101535 | 66 | 245 | 0.0 | 0.0 | 0.00 | 0.00 | 0.00 | 99 | 985.0 |
| 20260902101034 | 66 | 245 | 0.0 | 0.0 | 0.00 | 0.00 | 0.00 | 99 | 984.9 |
| 20260902100534 | 66 | 245 | 0.0 | 0.0 | 0.00 | 0.00 | 0.00 | 99 | 984.8 |
| 20260902100034 | 66 | 245 | 0.0 | 0.0 | 0.00 | 0.00 | 0.00 | 99 | 984.8 |
| 20260902095533 | 66 | 245 | 0.0 | 0.0 | 0.00 | 0.00 | 0.00 | 99 | 984.7 |
| 20260902095032 | 66 | 245 | 0.0 | 0.0 | 0.00 | 0.00 | 0.00 | 99 | 984.8 |
| 20260902094528 | 66 | 245 | 0.0 | 0.0 | 0.00 | 0.00 | 0.00 | 99 | 984.8 |
| 20260902094024 | 66 | 245 | 0.0 | 0.0 | 0.00 | 0.00 | 0.00 | 99 | 984.9 |
| 20260902093519 | 66 | 245 | 0.0 | 0.0 | 0.00 | 0.00 | 0.00 | 99 | 984.9 |
| 20260902093018 | 66 | 245 | 0.0 | 0.0 | 0.00 | 0.00 | 0.00 | 99 | 984.8 |
| 20260902092514 | 66 | 245 | 0.0 | 0.0 | 0.00 | 0.00 | 0.00 | 99 | 984.7 |
| 20260902092008 | 67 | 245 | 0.0 | 0.0 | 0.00 | 0.00 | 0.00 | 99 | 984.5 |
| 20260902091504 | 67 | 245 | 0.0 | 0.0 | 0.00 | 0.00 | 0.00 | 99 | 984.6 |
| 20260902091000 | 66 | 245 | 0.0 | 0.0 | 0.00 | 0.00 | 0.00 | 99 | 984.5 |
| 20260902090455 | 66 | 245 | 0.0 | 0.0 | 0.00 | 0.00 | 0.00 | 99 | 984.7 |
| 20260902085954 | 66 | 245 | 0.0 | 0.0 | 0.00 | 0.00 | 0.00 | 99 | 984.5 |
| 20260902085449 | 67 | 245 | 0.0 | 0.0 | 0.00 | 0.00 | 0.00 | 99 | 984.4 |
| 20260902084944 | 67 | 245 | 0.0 | 0.0 | 0.00 | 0.00 | 0.00 | 99 | 984.5 |
| 20260902084441 | 67 | 245 | 0.0 | 0.0 | 0.00 | 0.00 | 0.00 | 99 | 984.5 |
| 20260902083936 | 67 | 245 | 0.0 | 0.0 | 0.00 | 0.00 | 0.00 | 99 | 984.4 |
| 20260902083436 | 67 | 245 | 0.0 | 0.0 | 0.00 | 0.00 | 0.00 | 99 | 984.5 |
| 20260902082930 | 67 | 245 | 0.0 | 0.0 | 0.00 | 0.00 | 0.00 | 99 | 984.2 |
| 20260902082426 | 67 | 245 | 0.0 | 0.0 | 0.00 | 0.00 | 0.00 | 99 | 984.3 |
| 20260902081924 | 67 | 245 | 0.0 | 0.0 | 0.00 | 0.00 | 0.00 | 99 | 984.3 |
| 20260902081420 | 67 | 245 | 0.0 | 0.0 | 0.00 | 0.00 | 0.00 | 99 | 984.2 |
| 20260902080920 | 67 | 245 | 0.0 | 0.0 | 0.00 | 0.00 | 0.00 | 99 | 984.2 |
| 20260902080416 | 67 | 245 | 0.0 | 0.0 | 0.00 | 0.00 | 0.00 | 99 | 984.5 |
| 20260902075915 | 67 | 245 | 0.0 | 0.0 | 0.00 | 0.00 | 0.00 | 99 | 984.4 |
| 20260902075407 | 67 | 245 | 0.0 | 0.0 | 0.00 | 0.00 | 0.00 | 99 | 984.5 |
| 20260902074901 | 67 | 245 | 0.0 | 0.0 | 0.00 | 0.00 | 0.00 | 99 | 984.3 |
| 20260902074357 | 68 | 245 | 0.0 | 0.0 | 0.00 | 0.00 | 0.00 | 99 | 984.2 |
| 20260902073852 | 68 | 245 | 0.0 | 0.0 | 0.00 | 0.00 | 0.00 | 99 | 984.3 |
| 20260902073348 | 68 | 245 | 0.0 | 0.0 | 0.00 | 0.00 | 0.00 | 99 | 984.3 |
| 20260902072844 | 68 | 245 | 0.0 | 0.0 | 0.00 | 0.00 | 0.00 | 99 | 984.3 |
| 20260902072339 | 67 | 245 | 0.0 | 0.0 | 0.00 | 0.00 | 0.00 | 99 | 984.1 |
| 20260902071835 | 68 | 245 | 0.0 | 0.0 | 0.00 | 0.00 | 0.00 | 99 | 984.0 |
| 20260902071330 | 67 | 245 | 0.0 | 0.0 | 0.00 | 0.00 | 0.00 | 99 | 984.2 |
| 20260902070826 | 68 | 245 | 0.0 | 0.0 | 0.00 | 0.00 | 0.00 | 99 | 984.2 |
| 20260902070326 | 68 | 245 | 0.0 | 0.0 | 0.00 | 0.00 | 0.00 | 99 | 984.3 |
| 20260902065825 | 68 | 245 | 0.0 | 0.0 | 0.00 | 0.00 | 0.00 | 99 | 984.2 |
| 20260902065320 | 68 | 245 | 0.0 | 0.0 | 0.00 | 0.00 | 0.00 | 99 | 984.3 |
| 20260902064815 | 68 | 245 | 0.0 | 0.0 | 0.00 | 0.00 | 0.00 | 99 | 984.3 |
| 20260902064312 | 68 | 245 | 0.0 | 0.0 | 0.00 | 0.00 | 0.00 | 99 | 984.3 |
| 20260902063807 | 68 | 245 | 0.0 | 0.0 | 0.00 | 0.00 | 0.00 | 99 | 984.4 |
| 20260902063306 | 68 | 245 | 0.0 | 0.0 | 0.00 | 0.00 | 0.00 | 99 | 984.2 |
| 20260902062801 | 68 | 245 | 0.0 | 0.0 | 0.00 | 0.00 | 0.00 | 99 | 984.3 |
| 20260902062256 | 68 | 245 | 0.0 | 0.0 | 0.00 | 0.00 | 0.00 | 99 | 984.5 |
| 20260902061755 | 69 | 245 | 0.0 | 0.0 | 0.00 | 0.00 | 0.00 | 99 | 984.3 |
| 20260902061250 | 69 | 245 | 0.0 | 0.0 | 0.00 | 0.00 | 0.00 | 99 | 984.4 |
| 20260902060748 | 69 | 245 | 0.0 | 0.0 | 0.00 | 0.00 | 0.00 | 99 | 984.4 |
| 20260902060243 | 69 | 245 | 0.0 | 0.0 | 0.00 | 0.00 | 0.00 | 99 | 984.5 |
| 20260902055738 | 69 | 245 | 0.0 | 0.0 | 0.00 | 0.00 | 0.00 | 99 | 984.3 |
| 20260902055234 | 69 | 245 | 0.0 | 0.0 | 0.00 | 0.00 | 0.00 | 99 | 984.3 |
| 20260902054729 | 69 | 245 | 0.0 | 0.0 | 0.00 | 0.00 | 0.00 | 99 | 984.3 |
| 20260902054225 | 69 | 245 | 0.0 | 0.0 | 0.00 | 0.00 | 0.00 | 99 | 984.3 |
| 20260902053720 | 69 | 245 | 0.0 | 0.0 | 0.00 | 0.00 | 0.00 | 99 | 984.3 |
| 20260902053220 | 69 | 245 | 0.0 | 0.0 | 0.00 | 0.00 | 0.00 | 99 | 984.2 |
| 20260902052719 | 69 | 245 | 0.0 | 0.0 | 0.00 | 0.00 | 0.00 | 99 | 984.3 |
| 20260902052215 | 69 | 245 | 0.0 | 0.0 | 0.00 | 0.00 | 0.00 | 99 | 984.0 |
| 20260902051714 | 69 | 245 | 0.0 | 0.0 | 0.00 | 0.00 | 0.00 | 99 | 984.2 |
| 20260902051209 | 69 | 245 | 0.0 | 0.0 | 0.00 | 0.00 | 0.00 | 99 | 984.2 |
| 20260902050709 | 70 | 245 | 0.0 | 0.0 | 0.00 | 0.00 | 0.00 | 99 | 984.1 |
| 20260902050205 | 70 | 245 | 0.0 | 0.0 | 0.00 | 0.00 | 0.00 | 99 | 983.9 |
| 20260902045704 | 69 | 245 | 0.0 | 0.0 | 0.00 | 0.00 | 0.00 | 99 | 983.8 |
| 20260902045201 | 70 | 245 | 0.0 | 0.0 | 0.00 | 0.00 | 0.00 | 99 | 983.8 |
| 20260902044655 | 69 | 245 | 0.0 | 0.0 | 0.00 | 0.00 | 0.00 | 99 | 984.0 |
| 20260902044152 | 69 | 245 | 0.0 | 0.0 | 0.00 | 0.00 | 0.00 | 99 | 983.8 |
| 20260902043647 | 70 | 245 | 0.0 | 0.0 | 0.00 | 0.00 | 0.00 | 99 | 983.8 |
| 20260902043142 | 69 | 245 | 0.0 | 0.0 | 0.00 | 0.00 | 0.00 | 99 | 984.1 |
| 20260902042641 | 70 | 245 | 0.0 | 0.0 | 0.00 | 0.00 | 0.00 | 99 | 983.9 |
| 20260902042137 | 70 | 245 | 0.0 | 0.0 | 0.00 | 0.00 | 0.00 | 99 | 983.8 |
| 20260902041636 | 70 | 245 | 0.0 | 0.0 | 0.00 | 0.00 | 0.00 | 99 | 983.9 |
| 20260902041131 | 70 | 245 | 0.0 | 0.0 | 0.00 | 0.00 | 0.00 | 99 | 983.7 |
| 20260902040630 | 70 | 245 | 0.0 | 0.0 | 0.00 | 0.00 | 0.00 | 99 | 983.6 |
| 20260902040126 | 70 | 245 | 0.0 | 0.0 | 0.00 | 0.00 | 0.00 | 99 | 983.7 |
| 20260902035624 | 69 | 245 | 0.0 | 0.0 | 0.00 | 0.00 | 0.00 | 99 | 983.6 |
| 20260902035120 | 69 | 245 | 0.0 | 0.0 | 0.00 | 0.00 | 0.00 | 99 | 983.9 |
| 20260902034619 | 70 | 245 | 0.0 | 0.0 | 0.00 | 0.00 | 0.00 | 99 | 983.7 |
| 20260902034118 | 70 | 245 | 0.0 | 0.0 | 0.00 | 0.00 | 0.00 | 99 | 983.7 |
| 20260902033617 | 70 | 245 | 0.0 | 0.0 | 0.00 | 0.00 | 0.00 | 99 | 983.7 |
| 20260902033113 | 70 | 245 | 0.0 | 0.0 | 0.00 | 0.00 | 0.00 | 99 | 983.7 |
| 20260902032611 | 70 | 245 | 0.0 | 0.0 | 0.00 | 0.00 | 0.00 | 99 | 983.8 |
| 20260902032107 | 70 | 245 | 0.0 | 0.0 | 0.00 | 0.00 | 0.00 | 99 | 983.8 |
| 20260902031606 | 70 | 245 | 0.0 | 0.0 | 0.00 | 0.00 | 0.00 | 99 | 984.0 |
| 20260902031103 | 70 | 245 | 0.0 | 0.0 | 0.00 | 0.00 | 0.00 | 99 | 983.9 |
| 20260902030558 | 71 | 245 | 0.0 | 0.0 | 0.00 | 0.00 | 0.00 | 99 | 983.8 |
| 20260902030057 | 71 | 245 | 0.0 | 0.0 | 0.00 | 0.00 | 0.00 | 99 | 983.9 |
| 20260902025551 | 70 | 245 | 0.0 | 0.0 | 0.00 | 0.00 | 0.00 | 99 | 983.9 |
| 20260902025047 | 71 | 245 | 0.0 | 0.0 | 0.00 | 0.00 | 0.00 | 99 | 983.9 |
| 20260902024542 | 71 | 245 | 0.0 | 0.0 | 0.00 | 0.00 | 0.00 | 99 | 983.8 |
| 20260902024042 | 71 | 245 | 0.0 | 0.0 | 0.00 | 0.00 | 0.00 | 99 | 983.9 |
| 20260902023538 | 71 | 245 | 0.0 | 0.0 | 0.00 | 0.00 | 0.00 | 99 | 983.8 |
| 20260902023033 | 72 | 245 | 0.0 | 0.0 | 0.00 | 0.00 | 0.00 | 99 | 984.0 |
| 20260902022533 | 71 | 245 | 0.0 | 0.0 | 0.00 | 0.00 | 0.00 | 99 | 983.8 |
| 20260902022029 | 71 | 245 | 0.0 | 0.0 | 0.00 | 0.00 | 0.00 | 99 | 983.8 |
| 20260902021524 | 71 | 245 | 0.0 | 0.0 | 0.00 | 0.00 | 0.00 | 99 | 983.9 |
| 20260902021019 | 72 | 245 | 0.0 | 0.0 | 0.00 | 0.00 | 0.00 | 99 | 983.8 |
| 20260902020515 | 72 | 245 | 0.0 | 0.0 | 0.00 | 0.00 | 0.00 | 99 | 983.7 |
| 20260902020011 | 71 | 245 | 0.0 | 0.0 | 0.00 | 0.00 | 0.00 | 99 | 983.8 |
| 20260902015506 | 72 | 245 | 0.0 | 0.0 | 0.00 | 0.00 | 0.00 | 99 | 983.7 |
| 20260902015007 | 72 | 245 | 0.0 | 0.0 | 0.00 | 0.00 | 0.00 | 99 | 983.8 |
| 20260902014503 | 72 | 245 | 0.0 | 0.0 | 0.00 | 0.00 | 0.00 | 99 | 983.8 |
| 20260902013958 | 73 | 245 | 0.0 | 0.0 | 0.00 | 0.00 | 0.00 | 99 | 983.6 |
| 20260902013453 | 72 | 245 | 0.0 | 0.0 | 0.00 | 0.00 | 0.00 | 99 | 983.6 |
| 20260902012948 | 72 | 245 | 0.0 | 0.0 | 0.00 | 0.00 | 0.00 | 99 | 983.7 |
| 20260902012443 | 72 | 245 | 0.0 | 0.0 | 0.00 | 0.00 | 0.00 | 99 | 983.8 |
| 20260902011939 | 73 | 245 | 0.0 | 0.0 | 0.00 | 0.00 | 0.00 | 99 | 983.8 |
| 20260902011434 | 73 | 245 | 0.0 | 0.0 | 0.00 | 0.00 | 0.00 | 99 | 983.9 |
| 20260902010933 | 73 | 245 | 0.0 | 0.0 | 0.00 | 0.00 | 0.00 | 99 | 983.6 |
| 20260902010428 | 73 | 245 | 0.0 | 0.0 | 0.00 | 0.00 | 0.00 | 99 | 983.6 |
| 20260902005927 | 73 | 245 | 0.0 | 0.0 | 0.00 | 0.00 | 0.00 | 99 | 983.4 |
| 20260902005421 | 74 | 245 | 0.0 | 0.0 | 0.00 | 0.00 | 0.00 | 99 | 983.4 |
| 20260902004918 | 74 | 245 | 0.0 | 0.0 | 0.00 | 0.00 | 0.00 | 99 | 983.3 |
| 20260902004417 | 74 | 245 | 0.0 | 0.0 | 0.00 | 0.00 | 0.00 | 99 | 983.2 |
| 20260902003912 | 74 | 245 | 0.0 | 0.0 | 0.00 | 0.00 | 0.00 | 99 | 983.5 |
| 20260902003407 | 74 | 245 | 0.0 | 0.0 | 0.00 | 0.00 | 0.00 | 99 | 983.3 |
| 20260902002903 | 75 | 245 | 0.0 | 0.0 | 0.00 | 0.00 | 0.00 | 99 | 983.2 |
| 20260902002402 | 75 | 245 | 0.0 | 0.0 | 0.00 | 0.00 | 0.00 | 99 | 983.2 |
| 20260902001857 | 75 | 245 | 0.0 | 0.0 | 0.00 | 0.00 | 0.00 | 99 | 983.0 |
| 20260902001352 | 75 | 245 | 0.0 | 0.0 | 0.00 | 0.00 | 0.00 | 99 | 983.1 |
| 20260902000847 | 76 | 245 | 0.0 | 0.0 | 0.00 | 0.00 | 0.00 | 99 | 983.2 |
| 20260902000341 | 76 | 245 | 0.0 | 0.0 | 0.00 | 0.00 | 0.00 | 98 | 983.3 |
| 20260901235837 | 76 | 245 | 0.0 | 0.0 | 0.00 | 0.00 | 0.00 | 98 | 983.4 |
| 20260901235336 | 76 | 245 | 0.0 | 0.0 | 0.00 | 0.00 | 0.00 | 97 | 983.3 |
| 20260901234831 | 77 | 244 | 0.0 | 0.0 | 0.00 | 0.00 | 0.00 | 97 | 983.2 |
| 20260901234326 | 77 | 244 | 0.0 | 0.0 | 0.00 | 0.00 | 0.00 | 97 | 983.3 |
| 20260901233821 | 77 | 245 | 0.0 | 0.0 | 0.00 | 0.00 | 0.00 | 96 | 983.2 |
| 20260901233316 | 78 | 244 | 0.0 | 0.0 | 0.00 | 0.00 | 0.00 | 95 | 983.2 |
| 20260901232812 | 78 | 245 | 0.0 | 0.0 | 0.00 | 0.00 | 0.00 | 94 | 983.4 |
| 20260901232306 | 78 | 245 | 0.0 | 0.0 | 0.00 | 0.00 | 0.00 | 94 | 983.2 |
| 20260901231803 | 78 | 245 | 0.0 | 0.0 | 0.00 | 0.00 | 0.00 | 93 | 983.3 |
| 20260901231259 | 79 | 244 | 0.0 | 0.0 | 0.00 | 0.00 | 0.00 | 93 | 983.3 |
| 20260901230755 | 79 | 245 | 0.0 | 0.0 | 0.00 | 0.00 | 0.00 | 93 | 983.3 |
| 20260901230254 | 79 | 244 | 0.0 | 0.0 | 0.00 | 0.00 | 0.00 | 93 | 983.5 |
| 20260901225750 | 80 | 247 | 0.0 | 0.0 | 0.00 | 0.00 | 0.00 | 92 | 983.2 |
| 20260901225244 | 80 | 248 | 0.0 | 0.0 | 0.00 | 0.00 | 0.00 | 91 | 983.3 |
| 20260901224740 | 81 | 247 | 0.0 | 0.0 | 0.00 | 0.00 | 0.00 | 91 | 983.2 |
| 20260901224236 | 82 | 247 | 0.0 | 1.0 | 0.00 | 0.00 | 0.00 | 90 | 983.3 |
| 20260901223732 | 82 | 247 | 0.0 | 0.0 | 0.00 | 0.00 | 0.00 | 90 | 983.2 |
| 20260901223226 | 82 | 248 | 0.0 | 1.0 | 0.00 | 0.00 | 0.00 | 91 | 983.2 |
| 20260901222723 | 82 | 248 | 0.0 | 2.0 | 0.00 | 0.00 | 0.00 | 91 | 983.0 |
| 20260901222214 | 83 | 254 | 1.0 | 2.0 | 0.00 | 0.00 | 0.00 | 89 | 982.9 |
| 20260901221709 | 83 | 264 | 2.0 | 2.0 | 0.00 | 0.00 | 0.00 | 88 | 982.7 |
| 20260901221205 | 85 | 239 | 0.0 | 0.0 | 0.00 | 0.00 | 0.00 | 86 | 982.8 |
| 20260901220703 | 85 | 237 | 0.0 | 1.0 | 0.00 | 0.00 | 0.00 | 86 | 982.7 |
| 20260901220203 | 86 | 238 | 0.0 | 1.0 | 0.00 | 0.00 | 0.00 | 85 | 983.0 |
| 20260901215702 | 85 | 236 | 1.0 | 1.0 | 0.00 | 0.00 | 0.00 | 84 | 982.9 |
| 20260901215201 | 86 | 223 | 1.0 | 1.0 | 0.00 | 0.00 | 0.00 | 84 | 982.9 |
| 20260901214700 | 86 | 222 | 0.0 | 0.0 | 0.00 | 0.00 | 0.00 | 84 | 982.9 |
| 20260901214154 | 85 | 222 | 0.0 | 0.0 | 0.00 | 0.00 | 0.00 | 86 | 982.9 |
| 20260901213654 | 85 | 222 | 0.0 | 1.0 | 0.00 | 0.00 | 0.00 | 85 | 983.0 |
| 20260901213149 | 84 | 223 | 0.0 | 0.0 | 0.00 | 0.00 | 0.00 | 85 | 982.9 |
| 20260901212648 | 85 | 223 | 0.0 | 0.0 | 0.00 | 0.00 | 0.00 | 86 | 983.1 |
| 20260901212145 | 85 | 223 | 1.0 | 1.0 | 0.00 | 0.00 | 0.00 | 87 | 983.3 |
| 20260901211639 | 86 | 218 | 0.0 | 1.0 | 0.00 | 0.00 | 0.00 | 83 | 983.1 |
| 20260901211136 | 87 | 191 | 0.0 | 2.0 | 0.00 | 0.00 | 0.00 | 73 | 983.2 |
| 20260901210631 | 88 | 144 | 1.0 | 1.0 | 0.00 | 0.00 | 0.00 | 75 | 983.2 |
| 20260901210127 | 87 | 222 | 0.0 | 1.0 | 0.00 | 0.00 | 0.00 | 74 | 983.0 |
| 20260901205623 | 87 | 103 | 1.0 | 1.0 | 0.00 | 0.00 | 0.00 | 75 | 983.3 |
| 20260901205123 | 87 | 120 | 1.0 | 2.0 | 0.00 | 0.00 | 0.00 | 75 | 983.3 |
| 20260901204619 | 87 | 164 | 0.0 | 2.0 | 0.00 | 0.00 | 0.00 | 72 | 983.3 |
| 20260901204113 | 87 | 310 | 2.0 | 2.0 | 0.00 | 0.00 | 0.00 | 72 | 983.2 |
| 20260901203613 | 88 | 53 | 1.0 | 3.0 | 0.00 | 0.00 | 0.00 | 72 | 983.6 |
| 20260901203108 | 89 | 193 | 2.0 | 2.0 | 0.00 | 0.00 | 0.00 | 74 | 983.4 |
| 20260901202608 | 88 | 213 | 2.0 | 4.0 | 0.00 | 0.00 | 0.00 | 73 | 983.7 |
| 20260901202105 | 89 | 76 | 2.0 | 2.0 | 0.00 | 0.00 | 0.00 | 78 | 983.6 |
| 20260901201600 | 88 | 218 | 0.0 | 0.0 | 0.00 | 0.00 | 0.00 | 75 | 983.7 |
| 20260901201059 | 87 | 164 | 0.0 | 0.0 | 0.00 | 0.00 | 0.00 | 78 | 983.6 |
| 20260901200558 | 87 | 109 | 0.0 | 0.0 | 0.00 | 0.00 | 0.00 | 77 | 983.8 |
| 20260901200053 | 87 | 110 | 1.0 | 1.0 | 0.00 | 0.00 | 0.00 | 78 | 983.9 |
| 20260901195551 | 87 | 109 | 0.0 | 1.0 | 0.00 | 0.00 | 0.00 | 77 | 983.8 |
| 20260901195046 | 87 | 106 | 1.0 | 2.0 | 0.00 | 0.00 | 0.00 | 78 | 983.9 |
| 20260901194541 | 86 | 247 | 0.0 | 0.0 | 0.00 | 0.00 | 0.00 | 77 | 983.9 |
| 20260901194037 | 86 | 220 | 0.0 | 1.0 | 0.00 | 0.00 | 0.00 | 82 | 983.8 |
| 20260901193536 | 86 | 226 | 0.0 | 1.0 | 0.00 | 0.00 | 0.00 | 82 | 983.8 |
| 20260901193032 | 86 | 108 | 0.0 | 1.0 | 0.00 | 0.00 | 0.00 | 79 | 983.9 |
| 20260901192526 | 86 | 102 | 1.0 | 2.0 | 0.00 | 0.00 | 0.00 | 80 | 983.7 |
| 20260901192022 | 86 | 111 | 0.0 | 1.0 | 0.00 | 0.00 | 0.00 | 79 | 983.6 |
| 20260901191518 | 87 | 129 | 0.0 | 0.0 | 0.00 | 0.00 | 0.00 | 79 | 984.1 |
| 20260901191014 | 87 | 141 | 0.0 | 2.0 | 0.00 | 0.00 | 0.00 | 75 | 984.0 |
| 20260901190509 | 87 | 111 | 0.0 | 1.0 | 0.00 | 0.00 | 0.00 | 78 | 983.9 |
| 20260901190008 | 86 | 114 | 0.0 | 1.0 | 0.00 | 0.00 | 0.00 | 80 | 984.0 |
| 20260901185507 | 86 | 85 | 1.0 | 3.0 | 0.00 | 0.00 | 0.00 | 79 | 984.0 |
| 20260901185006 | 87 | 132 | 0.0 | 4.0 | 0.00 | 0.00 | 0.00 | 77 | 984.2 |
| 20260901184501 | 86 | 168 | 0.0 | 3.0 | 0.00 | 0.00 | 0.00 | 76 | 984.4 |
| 20260901183957 | 87 | 114 | 1.0 | 2.0 | 0.00 | 0.00 | 0.00 | 73 | 984.4 |
| 20260901183451 | 88 | 240 | 1.0 | 1.0 | 0.00 | 0.00 | 0.00 | 74 | 984.6 |
| 20260901182947 | 87 | 134 | 2.0 | 3.0 | 0.00 | 0.00 | 0.00 | 73 | 984.6 |
| 20260901182442 | 87 | 237 | 2.0 | 3.0 | 0.00 | 0.00 | 0.00 | 76 | 984.7 |
| 20260901181937 | 87 | 101 | 1.0 | 1.0 | 0.00 | 0.00 | 0.00 | 73 | 984.7 |
| 20260901181432 | 87 | 119 | 1.0 | 3.0 | 0.00 | 0.00 | 0.00 | 76 | 985.1 |
| 20260901180930 | 87 | 162 | 2.0 | 2.0 | 0.00 | 0.00 | 0.00 | 78 | 985.0 |
| 20260901180430 | 89 | 157 | 1.0 | 2.0 | 0.00 | 0.00 | 0.00 | 72 | 984.9 |
| 20260901175928 | 87 | 2 | 1.0 | 4.0 | 0.00 | 0.00 | 0.00 | 73 | 985.2 |
| 20260901175423 | 87 | 72 | 2.0 | 3.0 | 0.00 | 0.00 | 0.00 | 76 | 985.4 |
| 20260901174913 | 86 | 51 | 1.0 | 3.0 | 0.00 | 0.00 | 0.00 | 75 | 985.3 |
| 20260901174408 | 86 | 114 | 1.0 | 2.0 | 0.00 | 0.00 | 0.00 | 77 | 985.4 |
| 20260901173904 | 86 | 111 | 4.0 | 4.0 | 0.00 | 0.00 | 0.00 | 75 | 985.4 |
| 20260901173359 | 86 | 106 | 0.0 | 2.0 | 0.00 | 0.00 | 0.00 | 75 | 985.3 |
| 20260901172855 | 86 | 220 | 0.0 | 1.0 | 0.00 | 0.00 | 0.00 | 76 | 985.3 |
| 20260901172354 | 86 | 315 | 1.0 | 3.0 | 0.00 | 0.00 | 0.00 | 75 | 985.4 |
| 20260901171852 | 85 | 163 | 1.0 | 3.0 | 0.00 | 0.00 | 0.00 | 76 | 985.4 |
| 20260901171352 | 86 | 154 | 2.0 | 3.0 | 0.00 | 0.00 | 0.00 | 78 | 985.3 |
| 20260901170850 | 87 | 115 | 1.0 | 2.0 | 0.00 | 0.00 | 0.00 | 77 | 985.3 |
| 20260901170346 | 86 | 122 | 3.0 | 4.0 | 0.00 | 0.00 | 0.00 | 75 | 985.3 |
| 20260901165839 | 86 | 5 | 1.0 | 3.0 | 0.00 | 0.00 | 0.00 | 76 | 985.4 |